Regional Weather Roundup
Issued by NWS San Angelo, TX

Home | Current Version | Previous Version | Text Only | Print | Product List | Glossary On
Versions: 1 2 3 4 5 6 7 8 9 10 11 12 13 14 15 16 17 18 19 20 21 22 23 24 25 26 27 28 29 30 31 32 33 34 35 36 37 38 39 40 41 42 43 44 45 46 47 48 49 50
000
ASUS44 KSJT 241510
RWRSJT
WEST CENTRAL TEXAS REGIONAL WEATHER ROUNDUP
NATIONAL WEATHER SERVICE SAN ANGELO TX
1000 AM CDT FRI MAR 24 2017

NOTE: "FAIR" INDICATES FEW OR NO CLOUDS BELOW 12,000 FEET WITH NO
SIGNIFICANT WEATHER AND/OR OBSTRUCTIONS TO VISIBILITY.

TXZ049-054-064>066-071>073-076>078-098-099-113-114-127-128-139-140-
154-155-168>170-241600
...LOCATIONS ACROSS WEST CENTRAL TEXAS...

CITY           SKY/WX    TMP DP  RH WIND       PRES   REMARKS
SAN ANGELO     SUNNY     67  22  18 W22G31    29.94S
ABILENE        SUNNY     63  32  31 SW15G23   29.87F
DYESS AFB      SUNNY     67  28  22 W18G25    29.86S
JUNCTION       MOSUNNY   64  52  64 CALM      29.97S
SWEETWATER     SUNNY     62  27  26 SW20G28   29.90S
BROWNWOOD      CLOUDY    63  57  82 S6        29.93S
COLEMAN        MOSUNNY   65  38  37 SW13G18   29.93S
SONORA         SUNNY     64  32  29 VRB6      30.02S
OZONA            N/A     63  28  27 MISG      30.01R
BRADY          NOT AVBL
$$

TEXAS PANHANDLE/OKLAHOMA PANHANDLE

CITY           SKY/WX    TMP DP  RH WIND       PRES   REMARKS
AMARILLO       CLOUDY    49  39  68 SW32G45   29.60S
BORGER         CLOUDY    53  39  59 SW29G41   29.52S
CANADIAN       SUNNY     58  33  39 S22G29    29.59F
DALHART        PTSUNNY   45  37  73 NW39G59   29.52R WCI  34
DUMAS          PTSUNNY   44  36  72 W29G38    29.50R WCI  34
GUYMON         NOT AVBL
HEREFORD       CLOUDY    50  40  68 W26G38    29.67R
PAMPA          MOSUNNY   55  36  49 SW29G38   29.57F
PERRYTON       MOSUNNY   57  34  41 S23G32    29.55R
$$

SOUTHERN PANHANDLE/SOUTH PLAINS/ROLLING PLAINS

CITY           SKY/WX    TMP DP  RH WIND       PRES   REMARKS
LUBBOCK        MOSUNNY   56  27  32 SW28G41   29.75S
SNYDER         SUNNY     60  26  27 SW30G37   29.87S
CHILDRESS      SUNNY     61  28  28 SW24G31   29.73F
SEMINOLE       SUNNY     57  28  32 W23G32    29.89S
$$

PERMIAN BASIN

CITY           SKY/WX    TMP DP  RH WIND       PRES   REMARKS
MIDLAND        SUNNY     60  26  27 W32G41    29.92S
ODESSA           N/A    N/A N/A N/A MISG      29.93S
WINK           SUNNY     60  25  26 W33G43    29.92S
$$

FAR WEST/SOUTHWEST MOUNTAINS/TRANS PECOS

CITY           SKY/WX    TMP DP  RH WIND       PRES   REMARKS
ALPINE         SUNNY     55  18  24 W20G26    30.11S
DRYDEN           N/A     67  19  16 W21G30    29.97S
EL PASO        MOSUNNY   52  23  32 W22G41    30.07S
FORT STOCKTON  SUNNY     61  21  21 W17G31    29.99R
GUADALUPE PASS   N/A     45  23  42 SW39G64   29.96  WCI  34
MARFA          SUNNY     52  18  26 W30G38    30.10R
PECOS          SUNNY     62  25  24 W28G38    29.95R
$$

DALLAS/FORT WORTH METROPLEX

CITY           SKY/WX    TMP DP  RH WIND       PRES   REMARKS
DFW AIRPORT    HVY RAIN  60  57  89 SW12      29.91R FOG
FTW MEACHAM    LGT RAIN  59  56  89 SE12      29.89F
DAL-EXECUTIVE  CLOUDY    69  62  78 S12G31    29.89R
GRAND PRAIRIE  PTSUNNY   59  59 100 S14G25    29.96R
ADDISON        RAIN      61  57  88 W10G28    29.92R
MESQUITE       CLOUDY    68  61  77 SE21G26   29.91S
LANCASTER      CLOUDY    68  60  77 S15G22    29.92R
$$

NORTH CENTRAL TEXAS

CITY           SKY/WX    TMP DP  RH WIND       PRES   REMARKS
SHRMAN/DENISON RAIN      63  61  94 S14       29.90R
GAINESVILLE    DRIZZLE   62  57  84 SE10      29.87F
BRIDGEPORT     CLOUDY    60  50  71 SW6       29.89R
DENTON         LGT RAIN  57  54  89 SE9       29.87F
WAXAHACHIE     LGT RAIN  63  59  87 SW17G25   29.95R
GRANBURY       CLOUDY    59  53  82 SE9       29.92S
$$

WESTERN NORTH TEXAS

CITY           SKY/WX    TMP DP  RH WIND       PRES   REMARKS
WICHITA FALLS  CLOUDY    64  37  36 SW14      29.81R
VERNON         SUNNY     66  22  18 SW18      29.79S
BRECKENRIDGE   MOSUNNY   69  29  22 SW13      29.87F
COMANCHE       CLOUDY    64  61  87 S8        29.93R
$$

CENTRAL AND SOUTH CENTRAL TEXAS

CITY           SKY/WX    TMP DP  RH WIND       PRES   REMARKS
AUSTIN/BERGSTM LGT RAIN  68  66  93 S7        29.96R FOG
WACO           LGT RAIN  68  63  84 S17       29.93R
HILLSBORO      RAIN      56  52  88 W7G21     29.96R
TEMPLE         LGT RAIN  66  64  93 SE15      29.95R
KILLEEN-GRAY   CLOUDY    67  63  85 SE16      29.92S
FORT HOOD      CLOUDY    66  63  89 S13       29.91S
GEORGETOWN     CLOUDY    66  63  88 S9        29.95R
LAGO VISTA     CLOUDY    66  64  93 S9        29.97R
SAN MARCOS     CLOUDY    66  64  94 S9        29.98R FOG
NEW BRAUNFELS  CLOUDY    70  65  84 S8        29.96R
RANDOLPH AFB   CLOUDY    70  68  94 S7        29.97R
SAN ANTONIO    CLOUDY    69  64  84 S7        29.97R
STINSON        CLOUDY    71  65  81 CALM      29.95R
PLEASANTON     NOT AVBL
LA GRANGE      CLOUDY    74  68  79 S13       29.96S
GIDDINGS       CLOUDY    71  64  80 S9        29.98S
$$

EAST TEXAS

CITY           SKY/WX    TMP DP  RH WIND       PRES   REMARKS
PARIS          CLOUDY    70  57  64 S25G35    29.95S
CLARKSVILLE    NOT AVBL
TYLER          MOSUNNY   71  62  73 S18G24    29.99F
LONGVIEW       CLOUDY    70  63  78 S13       30.02S
PALESTINE      MOSUNNY   70  64  82 SE8       30.01F
NACOGDOCHES    CLOUDY    72  63  73 S13G22    30.03S
$$

TEXAS HILL COUNTRY AND EDWARDS PLATEAU

CITY           SKY/WX    TMP DP  RH WIND       PRES   REMARKS
LLANO          PTSUNNY   61  59  94 CALM      29.99S
HORSESHOE BAY  CLOUDY    71  64  78 S10G20    29.94F
KERRVILLE      CLOUDY    64  63  95 SW7       29.98S
FREDERICKSBRG  CLOUDY    62  53  73 NW17      30.00R
ROCKSPRINGS    SUNNY     64  37  36 N3        30.01S
HONDO          CLOUDY    70  64  81 S3        29.97R
UVALDE         CLOUDY    68  63  84 CALM      29.98R
DEL RIO        SUNNY     73  33  23 N9        29.97R
$$

SOUTHEAST TEXAS

CITY           SKY/WX    TMP DP  RH WIND       PRES   REMARKS
COLLEGE STN    PTSUNNY   71  64  78 S17G23    29.98F
CALDWELL       NOT AVBL
CROCKETT       MOSUNNY   68  64  88 SE6       30.06S
BRENHAM        PTSUNNY   72  66  82 SE10      30.00S
HUNTSVILLE     CLOUDY    72  62  71 S9        30.03S
CONROE         CLOUDY    73  63  70 S15G24    30.03S
HOUSTON BUSH   CLOUDY    74  64  71 S16       30.04R
HOUSTON HOBBY  CLOUDY    74  65  73 SE14G20   30.04R
PERLAND        CLOUDY    75  64  68 S9G21     30.05R
WHARTON        CLOUDY    74  64  71 SE14G20   30.02R
$$

THE UPPER TEXAS COAST

CITY           SKY/WX    TMP DP  RH WIND       PRES   REMARKS
ORANGE         CLOUDY    73  67  81 S15       30.11R
PORT ARTHUR    CLOUDY    74  65  73 S16G29    30.08R
GALVESTON      CLOUDY    74  68  81 SE15      30.05R
ANGLETON       PTSUNNY   75  65  70 S24G35    30.03R
BAY CITY       CLOUDY    74  66  75 S15       30.02R
$$

TEXAS COASTAL BEND, RIO GRANDE PLAINS DEEP SOUTH TEXAS

CITY           SKY/WX    TMP DP  RH WIND       PRES   REMARKS
VICTORIA       CLOUDY    75  67  76 S13       29.99R
BEEVILLE       CLOUDY    75  70  83 S20G26    29.95R
ROCKPORT       PTSUNNY   77  68  73 S10G22    29.96R
PORT ARANSAS   PTSUNNY   74  68  81 S12G17    29.96R
PORT LAVACA    CLOUDY    74  69  85 S16G29    30.00R
CORPUS CHRISTI CLOUDY    75  69  81 S25       29.95R
KINGSVILLE NAS PTSUNNY   78  69  73 S15       29.94R
COTULLA        CLOUDY    73  64  73 S5        29.95R
LAREDO         PTSUNNY   75  64  68 S8        29.95R
BROWNSVILLE    CLOUDY    79  68  69 S32G39    29.94R
PORT ISABEL    PTSUNNY   79  69  71 S25G39    29.92R
HEBBRONVILLE   PTSUNNY   73  64  73 S14       29.95R
MCALLEN        PTSUNNY   78  67  68 S17G35    29.92R
WESLACO        PTSUNNY   78  67  69 S29G36    29.92R
FALFURRIAS     PTSUNNY   77  67  70 S17G25    29.93R
EDINBURG       CLOUDY    80  67  65 S15G24    29.93R
$$



USA.gov is the U.S. government's official web portal to all federal, state and local government web resources and services.